Home   Weather   Spain   Valverde   Past weeks
Flag for Spain

Past Weather in Valverde, Santa Cruz De Tenerife, Spain — Yesterday and Last 2 Weeks

Currently: 68 °F. Scattered clouds. (Weather station: Hierro / Aeropuerto, Spain). See more current weather

Past Weather in Valverde — Graph

°F

Valverde Temperature Yesterday

Maximum temperature yesterday: 70 °F (at 11:30 am)
Minimum temperature yesterday: 64 °F (at 2:00 am)
Average temperature yesterday: 67 °F

High & Low Weather Summary for the Past Weeks

 TemperatureHumidityPressure
High77 °F (Feb 14, 12:30 pm)88% (Feb 18, 10:00 pm)30.36 "Hg (Feb 18, 10:00 pm)
Low64 °F (Feb 26, 3:00 am)41% (Feb 19, 3:30 pm)29.98 "Hg (Feb 14, 2:30 pm)
Average69 °F71%30.23 "Hg
* Reported Feb 14 10:00 am — Feb 29 10:30 am, Valverde. Weather by CustomWeather, © 2024

Note: Actual official high and low records may vary slightly from our data, if they occured in-between our weather recording intervals... More about our weather records

Valverde Weather History for the Previous 24 Hours

Scroll right to see more
 ConditionsComfort  
Time TempWeatherWind HumidityBarometerVisibility
10:30 am
Thu, Feb 29
70 °FScattered clouds.23 mph57%30.24 "HgN/A
10:00 am70 °FScattered clouds.23 mph64%30.24 "HgN/A
9:30 am68 °FScattered clouds.22 mph64%30.21 "HgN/A
9:00 am66 °FBroken clouds.18 mph73%30.21 "HgN/A
8:30 am66 °FBroken clouds.21 mph78%30.24 "HgN/A
8:00 am66 °FPartly sunny.22 mph73%30.21 "HgN/A
7:30 am66 °FPassing clouds.20 mph78%30.21 "HgN/A
7:00 am66 °FPassing clouds.21 mph73%30.21 "HgN/A
6:30 am66 °FPassing clouds.23 mph73%30.18 "HgN/A
6:00 am66 °FPassing clouds.23 mph68%30.18 "HgN/A
5:30 am66 °FPassing clouds.22 mph64%30.18 "HgN/A
4:30 am66 °FPassing clouds.25 mph73%30.18 "HgN/A
4:00 am66 °FPassing clouds.24 mph73%30.21 "HgN/A
3:30 am66 °FPassing clouds.22 mph68%30.21 "HgN/A
3:00 am66 °FPassing clouds.23 mph68%30.21 "HgN/A
2:30 am66 °FPassing clouds.20 mph64%30.24 "HgN/A
2:00 am66 °FPassing clouds.20 mph73%30.24 "HgN/A
1:30 am66 °FPassing clouds.26 mph68%30.21 "HgN/A
1:00 am66 °FPassing clouds.24 mph73%30.24 "HgN/A
12:30 am66 °FPassing clouds.23 mph68%30.24 "HgN/A
12:00 am66 °FPassing clouds.24 mph73%30.24 "Hg6 mi
11:30 pm
Wed, Feb 28
66 °FPassing clouds.23 mph73%30.24 "Hg6 mi
11:00 pm66 °FPassing clouds.23 mph68%30.27 "HgN/A
10:30 pm66 °FPartly cloudy.22 mph68%30.27 "Hg6 mi
10:00 pm66 °FPassing clouds.22 mph73%30.27 "Hg6 mi
9:30 pm66 °FPassing clouds.21 mph73%30.24 "Hg5 mi
9:00 pm66 °FPassing clouds.22 mph68%30.24 "Hg6 mi
8:30 pm66 °FPassing clouds.25 mph68%30.21 "HgN/A
8:00 pm66 °FPassing clouds.23 mph68%30.21 "HgN/A
7:30 pm66 °FPassing clouds.25 mph68%30.21 "HgN/A
7:00 pm66 °FPassing clouds.28 mph73%30.21 "HgN/A
6:30 pm66 °FScattered clouds.26 mph68%30.18 "HgN/A
6:00 pm66 °FPassing clouds.25 mph73%30.18 "HgN/A
5:30 pm66 °FScattered clouds.24 mph73%30.18 "HgN/A
5:00 pm66 °FScattered clouds.22 mph73%30.18 "HgN/A
4:30 pm68 °FScattered clouds.23 mph64%30.18 "HgN/A
4:00 pm68 °FPassing clouds.22 mph69%30.21 "HgN/A
3:30 pm68 °FPassing clouds.26 mph69%30.21 "HgN/A
3:00 pm68 °FPassing clouds.25 mph64%30.21 "HgN/A
2:30 pm68 °FScattered clouds.23 mph64%30.21 "HgN/A
2:00 pm70 °FScattered clouds.24 mph60%30.21 "HgN/A
1:30 pm70 °FScattered clouds.25 mph60%30.24 "HgN/A
1:00 pm70 °FScattered clouds.25 mph60%30.24 "HgN/A
12:30 pm68 °FPartly sunny.23 mph69%30.27 "HgN/A
12:00 pm70 °FPassing clouds.25 mph60%30.27 "HgN/A
11:30 am70 °FScattered clouds.25 mph57%30.27 "HgN/A
11:00 am68 °FScattered clouds.25 mph64%30.27 "HgN/A
Weather by CustomWeather, © 2024

See weather overview